Regional Weather Roundup
Issued by NWS Jackson, KY

Home | Current Version | Previous Version | Text Only | Print | Product List | Glossary Off
Versions: 1 2 3 4 5 6 7 8 9 10 11 12 13 14 15 16 17 18 19 20 21 22 23 24 25 26 27 28 29 30 31 32 33 34 35 36 37 38 39 40 41 42 43 44 45 46 47 48 49 50

008
ASUS43 KJKL 261110
RWRJKL

EAST KENTUCKY HOURLY WEATHER ROUNDUP
NATIONAL WEATHER SERVICE JACKSON KY
700 AM EDT WED APR 26 2017

NOTE: "FAIR" INDICATES FEW OR NO CLOUDS BELOW 12,000 FEET WITH
NO SIGNIFICANT WEATHER AND/OR OBSTRUCTIONS TO VISIBILITY.

* THESE REPORTS ARE NOT UNDER NWS QUALITY CONTROL AND MAY NOT
  REPORT WEATHER SUCH AS PRECIPITATION AND FOG.

KYZ079-080-083-085-087-088-110-112-115-119-120-261200
...EASTERN KENTUCKY...

CITY           SKY/WX    TMP DP  RH WIND       PRES   REMARKS
JACKSON        CLEAR     56  54  93 CALM      29.79R
LONDON         CLEAR     51  48  89 CALM      29.79R
SOMERSET*      CLEAR     50  50 100 CALM      29.79R
MONTICELLO*    CLEAR     52  51  97 N9        29.79R
MIDDLESBORO*   FOG       49  49 100 CALM      29.82R VSB 1/2
PIKE CO APT*     N/A     55  55 100 S3        29.80
BIG SANDY APT* SUNNY     55  55 100 SW3       29.79R
MOREHEAD APT*  SUNNY     54  52  94 CALM      29.78R
$$

KYZ035-036-041-042-044-050-067-078-099-261200
...CENTRAL KENTUCKY...

CITY           SKY/WX    TMP DP  RH WIND       PRES   REMARKS
MT STERLING*   CLOUDY    55  54  94 S3        29.78R
FLEMING/MASON* CLEAR     54  54  99 S5        29.76R
DANVILLE*      CLEAR     50  50 100 S5        29.77R
LEXINGTON      CLEAR     57  53  86 S8        29.75R
FRANKFORT      CLEAR     56  52  86 SE5       29.72R
LOUISVILLE     MOCLDY    59  55  87 SE8       29.69R
LEBANON*         N/A     59  55  88 S8        29.74R
GLASGOW*       CLEAR     58  54  85 S3        29.73S
BOWLING GREEN  FOG       54  54 100 CALM      29.73R VSB 1
$$

KYZ091>093-OHZ055-061-077-WVZ005-015-034-035-042-261200
...SOUTHERN OHIO/WEST VIRGINIA...

CITY           SKY/WX    TMP DP  RH WIND       PRES   REMARKS
COVINGTON      PTCLDY    56  53  90 S8        29.71R
COLUMBUS       PTCLDY    57  54  89 SE6       29.73R
DAYTON         CLOUDY    57  55  93 SE8       29.71R
WILMINGTON     CLEAR     56  55  97 SE5       29.73R
HUNTINGTON     CLEAR     53  51  93 CALM      29.76R FOG
CHARLESTON     FOG       53  52  96 CALM      29.77R VSB 1/4
PINEVILLE*     FOG       53  52  97 MISG      29.85R VSB<1/4
BECKLEY        CLEAR     51  50  96 CALM      29.81R
BLUEFIELD      CLEAR     52  51  97 W6        29.82R FOG
$$

VAZ002-007-008-TNZ017-027-036-066-071-261200
...SOUTHWEST VIRGINIA/EAST TENNESSEE...

CITY           SKY/WX    TMP DP  RH WIND       PRES   REMARKS
WISE*            N/A     52  52 100 SW5       29.85R
JONESVILLE*    FOG       50  50 100 CALM      29.83R VSB<1/4
ABINGDON*      FOG       50  50 100 CALM      29.82R VSB<1/4
BRISTOL        FOG       49  48  97 CALM      29.81R VSB 1/16
MORRISTOWN*    SUNNY     52  52 100 CALM      29.79R
SEVIERVILLE*   SUNNY     48  48 100 CALM      29.78R
KNOXVILLE      CLEAR     52  50  93 CALM      29.78R
LAFOLLETTE*    FOG       52  52 100 CALM      29.83R VSB 0
OAK RIDGE      FOG       52  50  93 CALM      29.81R VSB 1/4
CROSSVILLE     CLEAR     54  51  90 CALM      29.81R
NASHVILLE      PTCLDY    55  54  96 S6        29.74R
$$

...KEY TO REMARKS...
VSB - VISIBILITY IN MILES
WCI - WIND CHILL INDEX
HX  - HEAT INDEX

$$




USA.gov is the U.S. government's official web portal to all federal, state and local government web resources and services.